ACA766 CYYZ-KBOS

Flight info

Callsign ACA766
Flight time 1h 11m
Altitude 25000
Route KEPTA3BMPAH/23 KEPTA3 BMPAH DCT AEVON DCT HANKK DCT PONCT JFUND2
Aircraft A320/M-SDE3FGHIRWY/LB1

Departure

Time 2026-05-08 01:55
Airport Toronto Pearson International Airport (CYYZ)

Arrival

Time 2026-05-08 03:06
Airport Boston Logan International Airport (KBOS)
Time Latitude Longitude Altitude Speed Heading
2026-05-08 01:30 43.68359 -79.62063 569 ft 0 kts 111°
2026-05-08 01:31 43.68359 -79.62062 570 ft 0 kts 111°
2026-05-08 01:33 43.68359 -79.62063 569 ft 0 kts 111°
2026-05-08 01:44 43.68366 -79.62087 570 ft 4 kts 111°
2026-05-08 01:44 43.68375 -79.62121 566 ft 4 kts 111°
2026-05-08 01:45 43.68384 -79.62151 571 ft 4 kts 113°
2026-05-08 01:45 43.68398 -79.62178 567 ft 4 kts 160°
2026-05-08 01:45 43.68421 -79.62179 570 ft 2 kts 196°
2026-05-08 01:45 43.68427 -79.62177 571 ft 0 kts 196°
2026-05-08 01:48 43.68426 -79.62177 571 ft 1 kts 196°
2026-05-08 01:48 43.68405 -79.62186 568 ft 0 kts 197°
2026-05-08 01:48 43.68386 -79.62194 562 ft 9 kts 198°
2026-05-08 01:48 43.68339 -79.62244 563 ft 7 kts 226°
2026-05-08 01:49 43.68313 -79.62281 564 ft 5 kts 226°
2026-05-08 01:49 43.68291 -79.62337 566 ft 9 kts 264°
2026-05-08 01:49 43.68262 -79.62432 562 ft 13 kts 251°
2026-05-08 01:49 43.68316 -79.62536 562 ft 16 kts 318°
2026-05-08 01:50 43.68405 -79.62654 562 ft 20 kts 315°
2026-05-08 01:50 43.68519 -79.62801 562 ft 25 kts 317°
2026-05-08 01:50 43.68650 -79.62973 561 ft 27 kts 316°
2026-05-08 01:50 43.68785 -79.63148 562 ft 26 kts 317°
2026-05-08 01:51 43.68918 -79.63322 563 ft 26 kts 317°
2026-05-08 01:51 43.69037 -79.63479 571 ft 23 kts 316°
2026-05-08 01:51 43.69071 -79.63522 564 ft 0 kts 318°
2026-05-08 01:51 43.69085 -79.63535 570 ft 7 kts 334°
2026-05-08 01:52 43.69158 -79.63475 569 ft 19 kts 46°
2026-05-08 01:52 43.69293 -79.63422 568 ft 17 kts 359°
2026-05-08 01:52 43.69385 -79.63461 561 ft 14 kts 321°
2026-05-08 01:52 43.69374 -79.63566 567 ft 7 kts 227°
2026-05-08 01:53 43.69369 -79.63573 563 ft 0 kts 227°
2026-05-08 01:54 43.69237 -79.63765 565 ft 65 kts 226°
2026-05-08 01:54 43.68779 -79.64426 563 ft 126 kts 226°
2026-05-08 01:54 43.68074 -79.65463 694 ft 161 kts 228°
2026-05-08 01:55 43.67286 -79.66635 1175 ft 174 kts 227°
2026-05-08 01:55 43.66430 -79.67903 1772 ft 183 kts 231°
2026-05-08 01:55 43.65669 -79.69324 2466 ft 190 kts 238°
2026-05-08 01:55 43.64905 -79.70950 2855 ft 214 kts 239°
2026-05-08 01:56 43.64055 -79.72777 3292 ft 238 kts 239°
2026-05-08 01:56 43.63115 -79.74756 3958 ft 251 kts 238°
2026-05-08 01:56 43.62130 -79.76773 4890 ft 255 kts 237°
2026-05-08 01:56 43.60913 -79.78561 5825 ft 261 kts 217°
2026-05-08 01:57 43.59221 -79.79499 6733 ft 269 kts 191°
2026-05-08 01:57 43.57332 -79.79237 7596 ft 281 kts 162°
2026-05-08 01:57 43.55711 -79.77677 8385 ft 294 kts 131°
2026-05-08 01:57 43.54749 -79.75155 9196 ft 302 kts 112°
2026-05-08 01:58 43.54000 -79.72431 10016 ft 306 kts 112°
2026-05-08 01:58 43.53238 -79.69624 10464 ft 324 kts 112°
2026-05-08 01:58 43.52417 -79.66616 10685 ft 347 kts 112°
2026-05-08 01:58 43.51755 -79.63345 11176 ft 360 kts 103°
2026-05-08 01:59 43.51229 -79.59950 11885 ft 365 kts 103°
2026-05-08 01:59 43.50720 -79.56508 12624 ft 369 kts 102°
2026-05-08 01:59 43.50222 -79.53070 13343 ft 373 kts 102°
2026-05-08 01:59 43.49705 -79.49510 14032 ft 377 kts 102°
2026-05-08 02:00 43.49180 -79.45953 14665 ft 380 kts 102°
2026-05-08 02:00 43.48645 -79.42367 15298 ft 384 kts 103°
2026-05-08 02:00 43.48101 -79.38750 15934 ft 387 kts 103°
2026-05-08 02:00 43.47560 -79.35153 16549 ft 391 kts 102°
2026-05-08 02:01 43.47004 -79.31472 17165 ft 395 kts 102°
2026-05-08 02:01 43.46441 -79.27759 17770 ft 398 kts 102°
2026-05-08 02:01 43.45868 -79.24008 18369 ft 402 kts 102°
2026-05-08 02:01 43.45291 -79.20227 18906 ft 405 kts 102°
2026-05-08 02:02 43.44711 -79.16420 19459 ft 408 kts 102°
2026-05-08 02:02 43.44019 -79.12625 20006 ft 411 kts 109°
2026-05-08 02:02 43.42958 -79.08967 20555 ft 413 kts 114°
2026-05-08 02:02 43.41826 -79.05320 21108 ft 416 kts 114°
2026-05-08 02:03 43.40685 -79.01651 21679 ft 418 kts 114°
2026-05-08 02:03 43.39538 -78.97965 22213 ft 421 kts 114°
2026-05-08 02:03 43.38380 -78.94247 22726 ft 424 kts 114°
2026-05-08 02:03 43.37216 -78.90514 22915 ft 425 kts 114°
2026-05-08 02:04 43.36050 -78.86777 22945 ft 425 kts 114°
2026-05-08 02:04 43.34884 -78.83050 22939 ft 425 kts 114°
2026-05-08 02:04 43.33713 -78.79322 22939 ft 425 kts 114°
2026-05-08 02:04 43.32541 -78.75593 22940 ft 425 kts 114°
2026-05-08 02:05 43.31373 -78.71872 22943 ft 425 kts 114°
2026-05-08 02:05 43.30202 -78.68144 22943 ft 425 kts 114°
2026-05-08 02:05 43.29029 -78.64419 22939 ft 425 kts 114°
2026-05-08 02:05 43.27860 -78.60706 22939 ft 425 kts 114°
2026-05-08 02:06 43.26683 -78.56980 22941 ft 425 kts 114°
2026-05-08 02:06 43.25509 -78.53264 22940 ft 425 kts 114°
2026-05-08 02:06 43.24331 -78.49542 22936 ft 428 kts 115°
2026-05-08 02:06 43.23144 -78.45784 22936 ft 430 kts 115°
2026-05-08 02:07 43.21955 -78.42020 22934 ft 430 kts 115°
2026-05-08 02:07 43.20761 -78.38251 22934 ft 430 kts 115°
2026-05-08 02:07 43.19541 -78.34513 22931 ft 430 kts 118°
2026-05-08 02:07 43.18011 -78.31009 22930 ft 427 kts 128°
2026-05-08 02:08 43.16168 -78.27827 22930 ft 426 kts 132°
2026-05-08 02:08 43.14288 -78.24692 22926 ft 426 kts 132°
2026-05-08 02:08 43.12437 -78.21595 22925 ft 426 kts 132°
2026-05-08 02:08 43.10542 -78.18418 22924 ft 426 kts 132°
2026-05-08 02:09 43.08691 -78.15317 22924 ft 426 kts 132°
2026-05-08 02:09 43.06816 -78.12179 22924 ft 426 kts 132°
2026-05-08 02:09 43.04941 -78.09045 22924 ft 426 kts 132°
2026-05-08 02:09 43.03065 -78.05916 22925 ft 426 kts 132°
2026-05-08 02:10 43.01185 -78.02784 22925 ft 426 kts 132°
2026-05-08 02:10 42.99306 -77.99656 22918 ft 426 kts 133°
2026-05-08 02:10 42.97421 -77.96517 22929 ft 428 kts 133°
2026-05-08 02:10 42.95533 -77.93379 22931 ft 428 kts 133°
2026-05-08 02:11 42.93787 -77.90075 22936 ft 431 kts 124°
2026-05-08 02:11 42.92444 -77.86404 22935 ft 435 kts 114°
2026-05-08 02:11 42.91551 -77.82454 22941 ft 438 kts 104°
2026-05-08 02:11 42.91135 -77.78340 22938 ft 439 kts 94°
2026-05-08 02:12 42.91040 -77.74170 22938 ft 440 kts 92°
2026-05-08 02:12 42.90945 -77.69999 22940 ft 440 kts 92°
2026-05-08 02:12 42.90845 -77.65833 22937 ft 440 kts 92°
2026-05-08 02:12 42.90740 -77.61670 22942 ft 440 kts 92°
2026-05-08 02:13 42.90632 -77.57498 22924 ft 440 kts 93°
2026-05-08 02:13 42.90521 -77.53317 22944 ft 443 kts 94°
2026-05-08 02:13 42.90412 -77.49115 22934 ft 443 kts 94°
2026-05-08 02:13 42.90303 -77.44916 22932 ft 443 kts 94°
2026-05-08 02:14 42.90194 -77.40710 22934 ft 443 kts 93°
2026-05-08 02:14 42.90085 -77.36510 22932 ft 443 kts 94°
2026-05-08 02:14 42.89976 -77.32313 22933 ft 443 kts 94°
2026-05-08 02:14 42.89864 -77.28109 22933 ft 443 kts 94°
2026-05-08 02:15 42.89746 -77.23906 22933 ft 443 kts 94°
2026-05-08 02:15 42.89623 -77.19701 22931 ft 445 kts 94°
2026-05-08 02:15 42.89501 -77.15476 22945 ft 447 kts 94°
2026-05-08 02:15 42.89375 -77.11237 22945 ft 447 kts 94°
2026-05-08 02:16 42.89246 -77.07010 22939 ft 447 kts 94°
2026-05-08 02:16 42.89116 -77.02775 22942 ft 447 kts 94°
2026-05-08 02:16 42.88982 -76.98545 22944 ft 445 kts 94°
2026-05-08 02:16 42.88849 -76.94347 22940 ft 443 kts 94°
2026-05-08 02:17 42.88762 -76.91569 22938 ft 442 kts 94°
2026-05-08 02:17 42.88629 -76.87379 22939 ft 442 kts 94°
2026-05-08 02:17 42.88495 -76.83175 22935 ft 446 kts 95°
2026-05-08 02:17 42.88358 -76.78945 22937 ft 448 kts 95°
2026-05-08 02:18 42.88220 -76.74702 22936 ft 448 kts 95°
2026-05-08 02:18 42.88078 -76.70454 22937 ft 448 kts 95°
2026-05-08 02:18 42.87934 -76.66211 22937 ft 449 kts 95°
2026-05-08 02:18 42.87789 -76.61961 22936 ft 449 kts 95°
2026-05-08 02:19 42.87640 -76.57710 22937 ft 449 kts 95°
2026-05-08 02:19 42.87490 -76.53463 22931 ft 449 kts 95°
2026-05-08 02:19 42.87339 -76.49219 22904 ft 449 kts 96°
2026-05-08 02:19 42.87189 -76.44947 22948 ft 452 kts 96°
2026-05-08 02:20 42.87037 -76.40669 22932 ft 452 kts 96°
2026-05-08 02:20 42.86886 -76.36385 22932 ft 452 kts 96°
2026-05-08 02:20 42.86732 -76.32111 22930 ft 452 kts 96°
2026-05-08 02:20 42.86572 -76.27820 22932 ft 453 kts 96°
2026-05-08 02:21 42.86400 -76.23462 22929 ft 468 kts 96°
2026-05-08 02:21 42.86219 -76.18966 22926 ft 481 kts 96°
2026-05-08 02:21 42.86039 -76.14379 22909 ft 487 kts 96°
2026-05-08 02:21 42.85863 -76.09757 22933 ft 491 kts 97°
2026-05-08 02:22 42.85688 -76.05110 22925 ft 492 kts 97°
2026-05-08 02:22 42.85510 -76.00448 22920 ft 492 kts 97°
2026-05-08 02:22 42.85332 -75.95794 22925 ft 492 kts 97°
2026-05-08 02:22 42.85147 -75.91141 22924 ft 492 kts 97°
2026-05-08 02:23 42.84957 -75.86481 22923 ft 492 kts 97°
2026-05-08 02:23 42.84766 -75.81832 22916 ft 492 kts 97°
2026-05-08 02:23 42.84571 -75.77177 22885 ft 492 kts 98°
2026-05-08 02:23 42.84374 -75.72498 22922 ft 496 kts 98°
2026-05-08 02:24 42.84170 -75.67800 22916 ft 497 kts 98°
2026-05-08 02:24 42.83960 -75.63103 22912 ft 497 kts 98°
2026-05-08 02:24 42.83747 -75.58410 22917 ft 497 kts 98°
2026-05-08 02:24 42.83539 -75.53708 22915 ft 497 kts 98°
2026-05-08 02:25 42.83339 -75.49009 22916 ft 497 kts 98°
2026-05-08 02:25 42.83141 -75.44372 22916 ft 497 kts 98°
2026-05-08 02:25 42.82936 -75.39661 22904 ft 499 kts 98°
2026-05-08 02:25 42.82726 -75.34933 22917 ft 501 kts 98°
2026-05-08 02:26 42.82507 -75.30202 22920 ft 501 kts 98°
2026-05-08 02:26 42.82285 -75.25465 22918 ft 501 kts 98°
2026-05-08 02:26 42.82065 -75.20720 22922 ft 501 kts 98°
2026-05-08 02:26 42.81843 -75.15985 22922 ft 501 kts 99°
2026-05-08 02:27 42.81620 -75.11241 22925 ft 501 kts 98°
2026-05-08 02:27 42.81394 -75.06505 22912 ft 501 kts 99°
2026-05-08 02:27 42.81164 -75.01761 22924 ft 503 kts 99°
2026-05-08 02:27 42.80930 -74.97004 22916 ft 504 kts 99°
2026-05-08 02:28 42.80698 -74.92244 22920 ft 504 kts 99°
2026-05-08 02:28 42.80465 -74.87484 22922 ft 504 kts 99°
2026-05-08 02:28 42.80227 -74.82725 22923 ft 504 kts 99°
2026-05-08 02:28 42.79984 -74.77967 22920 ft 503 kts 99°
2026-05-08 02:29 42.79740 -74.73217 22922 ft 504 kts 99°
2026-05-08 02:29 42.79496 -74.68463 22918 ft 503 kts 99°
2026-05-08 02:29 42.79251 -74.63703 22928 ft 503 kts 99°
2026-05-08 02:29 42.79007 -74.58979 22911 ft 500 kts 99°
2026-05-08 02:30 42.78763 -74.54252 22914 ft 500 kts 99°
2026-05-08 02:30 42.78516 -74.49539 22912 ft 500 kts 99°
2026-05-08 02:30 42.78266 -74.44818 22914 ft 500 kts 99°
2026-05-08 02:30 42.78015 -74.40100 22914 ft 500 kts 99°
2026-05-08 02:31 42.77762 -74.35387 22877 ft 500 kts 100°
2026-05-08 02:31 42.77503 -74.30658 22919 ft 502 kts 100°
2026-05-08 02:31 42.77242 -74.25918 22904 ft 502 kts 100°
2026-05-08 02:31 42.76979 -74.21186 22906 ft 502 kts 100°
2026-05-08 02:32 42.76712 -74.16442 22906 ft 502 kts 100°
2026-05-08 02:32 42.76445 -74.11704 22906 ft 502 kts 100°
2026-05-08 02:32 42.76178 -74.06972 22904 ft 502 kts 100°
2026-05-08 02:32 42.75908 -74.02229 22906 ft 502 kts 100°
2026-05-08 02:33 42.75636 -73.97498 22894 ft 503 kts 100°
2026-05-08 02:33 42.75360 -73.92742 22901 ft 505 kts 100°
2026-05-08 02:33 42.75078 -73.87975 22912 ft 505 kts 100°
2026-05-08 02:33 42.74801 -73.83272 22902 ft 505 kts 100°
2026-05-08 02:34 42.74562 -73.78440 22902 ft 507 kts 98°
2026-05-08 02:34 42.74448 -73.73701 22912 ft 508 kts 96°
2026-05-08 02:34 42.74433 -73.68895 22905 ft 509 kts 95°
2026-05-08 02:34 42.74471 -73.64072 22863 ft 510 kts 94°
2026-05-08 02:35 42.74512 -73.59246 22912 ft 512 kts 94°
2026-05-08 02:35 42.74529 -73.54399 22899 ft 512 kts 95°
2026-05-08 02:35 42.74511 -73.49565 22898 ft 511 kts 96°
2026-05-08 02:35 42.74466 -73.44727 22883 ft 511 kts 96°
2026-05-08 02:36 42.74405 -73.39891 22881 ft 511 kts 96°
2026-05-08 02:36 42.74341 -73.35057 22881 ft 511 kts 96°
2026-05-08 02:36 42.74282 -73.30222 22878 ft 511 kts 96°
2026-05-08 02:36 42.74229 -73.25398 22878 ft 511 kts 96°
2026-05-08 02:37 42.74178 -73.20557 22880 ft 511 kts 96°
2026-05-08 02:37 42.74125 -73.15733 22882 ft 510 kts 96°
2026-05-08 02:37 42.73982 -73.10925 22882 ft 505 kts 102°
2026-05-08 02:37 42.73479 -73.06221 22884 ft 503 kts 105°
2026-05-08 02:38 42.72932 -73.01522 22878 ft 503 kts 105°
2026-05-08 02:38 42.72386 -72.96826 22886 ft 503 kts 105°
2026-05-08 02:38 42.71841 -72.92131 22873 ft 503 kts 105°
2026-05-08 02:38 42.71292 -72.87427 22875 ft 504 kts 105°
2026-05-08 02:39 42.70743 -72.82725 22882 ft 504 kts 105°
2026-05-08 02:39 42.70193 -72.78027 22878 ft 503 kts 105°
2026-05-08 02:39 42.69642 -72.73324 22874 ft 503 kts 105°
2026-05-08 02:39 42.69092 -72.68633 22881 ft 503 kts 105°
2026-05-08 02:40 42.68537 -72.63930 22877 ft 503 kts 105°
2026-05-08 02:40 42.67977 -72.59242 22765 ft 502 kts 105°
2026-05-08 02:40 42.67426 -72.54631 22482 ft 487 kts 105°
2026-05-08 02:40 42.66886 -72.50155 22210 ft 473 kts 106°
2026-05-08 02:41 42.66354 -72.45800 21938 ft 461 kts 106°
2026-05-08 02:41 42.65831 -72.41561 21674 ft 451 kts 106°
2026-05-08 02:41 42.65316 -72.37410 21417 ft 441 kts 106°
2026-05-08 02:41 42.64823 -72.33386 21107 ft 435 kts 106°
2026-05-08 02:42 42.64324 -72.29349 20614 ft 432 kts 106°
2026-05-08 02:42 42.63846 -72.25338 20128 ft 429 kts 105°
2026-05-08 02:42 42.63388 -72.21355 19702 ft 425 kts 105°
2026-05-08 02:42 42.62941 -72.17395 19199 ft 423 kts 105°
2026-05-08 02:43 42.62493 -72.13452 18732 ft 421 kts 105°
2026-05-08 02:43 42.62043 -72.09544 18289 ft 418 kts 105°
2026-05-08 02:43 42.61583 -72.05669 17893 ft 412 kts 105°
2026-05-08 02:43 42.61119 -72.01847 17410 ft 409 kts 105°
2026-05-08 02:44 42.60652 -71.98058 16949 ft 406 kts 105°
2026-05-08 02:44 42.60186 -71.94297 16481 ft 403 kts 104°
2026-05-08 02:44 42.59725 -71.90560 16011 ft 400 kts 104°
2026-05-08 02:44 42.59262 -71.86862 15573 ft 397 kts 104°
2026-05-08 02:45 42.58796 -71.83181 15126 ft 395 kts 103°
2026-05-08 02:45 42.58312 -71.79537 14695 ft 391 kts 104°
2026-05-08 02:45 42.57773 -71.75953 14333 ft 386 kts 105°
2026-05-08 02:45 42.57198 -71.72399 13920 ft 383 kts 105°
2026-05-08 02:46 42.56619 -71.68909 13676 ft 374 kts 105°
2026-05-08 02:46 42.56054 -71.65494 13358 ft 368 kts 105°
2026-05-08 02:46 42.55502 -71.62120 12959 ft 365 kts 104°
2026-05-08 02:46 42.54955 -71.58782 12559 ft 361 kts 105°
2026-05-08 02:47 42.54350 -71.55507 12094 ft 354 kts 107°
2026-05-08 02:47 42.53711 -71.52391 11851 ft 333 kts 108°
2026-05-08 02:47 42.53072 -71.49421 11361 ft 324 kts 108°
2026-05-08 02:47 42.52439 -71.46520 10793 ft 319 kts 108°
2026-05-08 02:48 42.51820 -71.43654 10357 ft 315 kts 107°
2026-05-08 02:48 42.51222 -71.40847 10201 ft 314 kts 107°
2026-05-08 02:48 42.50623 -71.38001 10071 ft 314 kts 107°
2026-05-08 02:48 42.50020 -71.35110 9866 ft 314 kts 106°
2026-05-08 02:49 42.49453 -71.32311 9544 ft 311 kts 105°
2026-05-08 02:49 42.48895 -71.29501 9259 ft 307 kts 105°
2026-05-08 02:49 42.48345 -71.26716 8976 ft 305 kts 105°
2026-05-08 02:49 42.47795 -71.23951 8694 ft 303 kts 105°
2026-05-08 02:50 42.47248 -71.21205 8410 ft 301 kts 105°
2026-05-08 02:50 42.46704 -71.18480 8151 ft 299 kts 105°
2026-05-08 02:50 42.46175 -71.15767 7874 ft 297 kts 101°
2026-05-08 02:50 42.45891 -71.13014 7600 ft 294 kts 96°
2026-05-08 02:51 42.45645 -71.10277 7328 ft 292 kts 96°
2026-05-08 02:51 42.45402 -71.07596 7161 ft 281 kts 96°
2026-05-08 02:51 42.45168 -71.05027 7038 ft 269 kts 96°
2026-05-08 02:51 42.44938 -71.02557 6852 ft 260 kts 97°
2026-05-08 02:52 42.44661 -71.00153 6593 ft 255 kts 99°
2026-05-08 02:52 42.44349 -70.97804 6473 ft 253 kts 98°
2026-05-08 02:52 42.44252 -70.95443 6351 ft 251 kts 83°
2026-05-08 02:52 42.44556 -70.93131 6225 ft 249 kts 76°
2026-05-08 02:53 42.44907 -70.90839 6098 ft 248 kts 76°
2026-05-08 02:53 42.45258 -70.88556 5989 ft 244 kts 76°
2026-05-08 02:53 42.45600 -70.86357 5989 ft 238 kts 76°
2026-05-08 02:53 42.45942 -70.84156 5992 ft 239 kts 76°
2026-05-08 02:54 42.46281 -70.81951 5992 ft 239 kts 76°
2026-05-08 02:54 42.46613 -70.79738 5992 ft 240 kts 76°
2026-05-08 02:54 42.46940 -70.77523 5990 ft 240 kts 76°
2026-05-08 02:54 42.47265 -70.75304 5990 ft 240 kts 76°
2026-05-08 02:55 42.47587 -70.73088 5989 ft 240 kts 77°
2026-05-08 02:55 42.48222 -70.68675 5988 ft 240 kts 77°
2026-05-08 02:55 42.48541 -70.66456 5986 ft 240 kts 77°
2026-05-08 02:56 42.48853 -70.64229 5985 ft 241 kts 80°
2026-05-08 02:56 42.48758 -70.61969 5987 ft 242 kts 99°
2026-05-08 02:56 42.48460 -70.59721 5986 ft 243 kts 99°
2026-05-08 02:56 42.48172 -70.57465 5983 ft 243 kts 99°
2026-05-08 02:57 42.47815 -70.55234 5976 ft 243 kts 113°
2026-05-08 02:57 42.46819 -70.53434 5977 ft 239 kts 147°
2026-05-08 02:57 42.45314 -70.52763 5976 ft 224 kts 188°
2026-05-08 02:57 42.44011 -70.53531 5998 ft 197 kts 233°
2026-05-08 02:58 42.43537 -70.55193 6006 ft 192 kts 267°
2026-05-08 02:58 42.43337 -70.56994 5977 ft 199 kts 259°
2026-05-08 02:58 42.43008 -70.58852 5910 ft 205 kts 259°
2026-05-08 02:58 42.42677 -70.60727 5694 ft 205 kts 259°
2026-05-08 02:59 42.42351 -70.62601 5422 ft 204 kts 259°
2026-05-08 02:59 42.42027 -70.64464 5147 ft 201 kts 260°
2026-05-08 02:59 42.41714 -70.66263 4880 ft 191 kts 259°
2026-05-08 02:59 42.41419 -70.67961 4642 ft 181 kts 260°
2026-05-08 03:00 42.41134 -70.69602 4391 ft 178 kts 260°
2026-05-08 03:00 42.40851 -70.71231 4152 ft 178 kts 260°
2026-05-08 03:00 42.40568 -70.72860 3902 ft 178 kts 260°
2026-05-08 03:00 42.40285 -70.74481 3666 ft 177 kts 260°
2026-05-08 03:01 42.40004 -70.76094 3432 ft 176 kts 260°
2026-05-08 03:01 42.39730 -70.77657 3208 ft 167 kts 260°
2026-05-08 03:01 42.39465 -70.79176 2978 ft 165 kts 261°
2026-05-08 03:01 42.39202 -70.80680 2753 ft 164 kts 261°
2026-05-08 03:02 42.38940 -70.82177 2527 ft 163 kts 261°
2026-05-08 03:02 42.38680 -70.83661 2308 ft 161 kts 261°
2026-05-08 03:02 42.38421 -70.85138 2088 ft 161 kts 261°
2026-05-08 03:02 42.38164 -70.86600 1870 ft 158 kts 261°
2026-05-08 03:03 42.37923 -70.87960 1662 ft 141 kts 262°
2026-05-08 03:03 42.37703 -70.89212 1467 ft 134 kts 262°
2026-05-08 03:03 42.37491 -70.90425 1291 ft 132 kts 261°
2026-05-08 03:03 42.37281 -70.91622 1114 ft 130 kts 261°
2026-05-08 03:04 42.37073 -70.92801 945 ft 130 kts 260°
2026-05-08 03:04 42.36861 -70.94008 778 ft 130 kts 259°
2026-05-08 03:04 42.36652 -70.95194 608 ft 129 kts 259°
2026-05-08 03:04 42.36449 -70.96370 463 ft 131 kts 259°
2026-05-08 03:05 42.36241 -70.97568 277 ft 130 kts 258°
2026-05-08 03:05 42.36088 -70.98370 118 ft 130 kts 261°
2026-05-08 03:05 42.35833 -70.99861 25 ft 100 kts 256°
2026-05-08 03:05 42.35711 -71.00537 27 ft 55 kts 256°
2026-05-08 03:06 42.35634 -71.00987 26 ft 42 kts 262°
2026-05-08 03:06 42.35709 -71.01241 27 ft 16 kts 313°
2026-05-08 03:06 42.35774 -71.01253 29 ft 10 kts 20°
2026-05-08 03:06 42.35831 -71.01248 27 ft 8 kts 331°
2026-05-08 03:07 42.35849 -71.01294 28 ft 9 kts 282°
2026-05-08 03:07 42.35860 -71.01387 25 ft 11 kts 277°
2026-05-08 03:07 42.35876 -71.01499 25 ft 13 kts 282°
2026-05-08 03:07 42.35905 -71.01623 27 ft 14 kts 324°
2026-05-08 03:08 42.35997 -71.01600 27 ft 11 kts
2026-05-08 03:08 42.36034 -71.01663 28 ft 7 kts 290°
2026-05-08 03:08 42.36045 -71.01704 27 ft 1 kts 289°